Syracuse, NY

2:10 PM EST on November 12, 2019 (GMT -0500)
Syracuse Hancock International

Weather History for KSYR - September, 2019

Change the Weather History Date:

Wednesday, September 25, 2019

  Actual Average Record
Temperature  
Mean Temperature 63 °F 58 °F  
Max Temperature 78 °F 68 °F 91 °F (2007)
Min Temperature 48 °F 48 °F 32 °F (1963)
Degree Days  
Heating Degree Days 2 7  
Month to date heating degree days 49 98  
Since 1 July heating degree days 54 124  
Cooling Degree Days 0 1  
Month to date cooling degree days 36 50  
Year to date cooling degree days 604 563  
Growing Degree Days 13 (Base 50)    
Moisture  
Dew Point 53 °F    
Average Humidity 72    
Maximum Humidity 96    
Minimum Humidity 47    
Precipitation  
Precipitation T in 0.12 in 2.49 in (1975)
Month to date precipitation 3.04 3.06  
Year to date precipitation 33.68 27.65  
Snow  
Snow 0.00 in 0.00 in 0.00 in (2002)
Month to date snowfall 0.0 0.0  
Since 1 July snowfall T 0.0  
Since 1 September snowfall 0.0 0.0  
Snow Depth 0.00 in    
Sea Level Pressure  
Sea Level Pressure 29.83 in    
Wind  
Wind Speed 3 mph ()    
Max Wind Speed 12 mph    
Max Gust Speed 15 mph    
Visibility 10.0 miles    
Events Rain    
T = Trace of Precipitation, MM = Missing Value Source: Averaged Metar Reports

Daily Weather History Graph

Daily Weather History Graph

Search for Another Location

Airport or City:

Astronomy

Sep. 25, 2019 Rise Set
Actual Time 6:54 AM EDT 6:56 PM EDT
Civil Twilight 6:26 AM EDT 7:25 PM EDT
Nautical Twilight 5:53 AM EDT 7:58 PM EDT
Astronomical Twilight 5:19 AM EDT 8:31 PM EDT
Moon 2:37 AM EDT (9/25) 5:34 PM EDT (9/25)
Length of Visible Light 12h 58m
Length of Day
12h 02m
Waning Crescent, 14% of the Moon is Illuminated
Sep 25
Waning Crescent
Sep 28
New
Oct 5
First Quarter
Oct 13
Full
Oct 21
Last Quarter

Hourly Weather History & Observations

Time (EDT) Temp. Dew Point Humidity Pressure Visibility Wind Dir Wind Speed Gust Speed Precip Events Conditions
12:54 AM 54.0 °F 51.1 °F 90% 29.86 in 10.0 mi Calm Calm - N/A   Partly Cloudy
1:54 AM 52.0 °F 50.0 °F 93% 29.85 in 10.0 mi ESE 3.5 mph - N/A   Scattered Clouds
2:54 AM 52.0 °F 48.9 °F 89% 29.86 in 10.0 mi Calm Calm - N/A   Partly Cloudy
3:54 AM 51.1 °F 48.9 °F 92% 29.88 in 10.0 mi Calm Calm - N/A   Scattered Clouds
4:54 AM 50.0 °F 48.0 °F 93% 29.88 in 10.0 mi Calm Calm - N/A   Partly Cloudy
5:54 AM 50.0 °F 46.9 °F 89% 29.88 in 10.0 mi SE 3.5 mph - N/A   Partly Cloudy
6:54 AM 48.9 °F 46.9 °F 93% 29.89 in 10.0 mi East 4.6 mph - N/A   Mostly Cloudy
7:11 AM 50.0 °F 46.9 °F 89% 29.90 in 10.0 mi East 4.6 mph - N/A   Mostly Cloudy
7:23 AM 48.9 °F 46.9 °F 93% 29.90 in 10.0 mi ESE 5.8 mph - N/A   Mostly Cloudy
7:54 AM 50.0 °F 46.9 °F 89% 29.89 in 10.0 mi East 4.6 mph - N/A   Scattered Clouds
8:54 AM 55.9 °F 52.0 °F 87% 29.89 in 10.0 mi ESE 5.8 mph - N/A   Scattered Clouds
9:54 AM 62.1 °F 55.0 °F 78% 29.88 in 10.0 mi ESE 5.8 mph - N/A   Scattered Clouds
10:54 AM 66.0 °F 54.0 °F 65% 29.88 in 10.0 mi East 3.5 mph - N/A   Scattered Clouds
11:54 AM 70.0 °F 55.0 °F 59% 29.85 in 10.0 mi Calm Calm - N/A   Scattered Clouds
12:54 PM 73.0 °F 54.0 °F 51% 29.82 in 10.0 mi SE 3.5 mph - N/A   Mostly Cloudy
1:54 PM 75.9 °F 55.0 °F 48% 29.79 in 10.0 mi WSW 5.8 mph - N/A   Mostly Cloudy
2:54 PM 77.0 °F 55.9 °F 48% 29.78 in 10.0 mi WSW 11.5 mph - N/A   Mostly Cloudy
3:54 PM 77.0 °F 57.0 °F 50% 29.76 in 10.0 mi SW 9.2 mph - N/A   Mostly Cloudy
4:54 PM 75.9 °F 57.0 °F 52% 29.76 in 10.0 mi SSW 10.4 mph - N/A   Mostly Cloudy
5:54 PM 75.0 °F 55.9 °F 51% 29.76 in 10.0 mi SSW 9.2 mph - N/A   Mostly Cloudy
6:54 PM 73.0 °F 57.0 °F 57% 29.75 in 10.0 mi SSE 5.8 mph - N/A   Mostly Cloudy
7:54 PM 70.0 °F 57.0 °F 63% 29.75 in 10.0 mi SSE 4.6 mph - N/A   Mostly Cloudy
8:54 PM 68.0 °F 57.0 °F 68% 29.76 in 10.0 mi SSE 4.6 mph - N/A   Mostly Cloudy
9:54 PM 71.1 °F 55.0 °F 57% 29.76 in 10.0 mi South 9.2 mph - N/A   Overcast
10:54 PM 71.1 °F 55.0 °F 57% 29.76 in 10.0 mi South 8.1 mph - N/A   Overcast
11:54 PM 70.0 °F 55.9 °F 61% 29.76 in 10.0 mi SSW 6.9 mph - 0.00 in Rain Light Rain